GEFSSGP_con_probscp_192.txt.gz
Probability
2 7 19 29 26 10 1 0 0 0 0 0 0 0 0 0 0 0 1 1 1 0 1 2 3 3 2 3 3 3 3 3 3 3 3 3 3 3 3 3 3 3 3 3 3 3 3 3 3
3 9 20 25 18 6 0 0 0 0 0 0 0 0 0 0 0 0 0 0 0 0 1 2 3 3 3 3 3 3 3 3 3 3 3 3 3 3 3 3 3 3 3 3 3 3 3 3 3
4 10 18 16 7 1 0 0 0 0 0 0 0 0 0 0 0 0 0 0 1 2 3 3 3 3 3 3 3 3 3 3 3 3 3 3 3 3 3 3 3 3 3 3 3 3 3 3 3
6 9 11 7 2 0 0 0 0 0 0 0 0 0 0 0 0 0 0 1 3 4 3 3 3 2 2 3 3 3 3 3 3 3 3 3 3 3 3 3 3 3 3 3 3 3 3 2 2
6 6 4 2 0 0 0 0 0 0 0 0 0 0 0 0 0 0 1 3 5 5 4 3 3 1 1 2 3 3 3 3 3 3 3 3 3 3 3 3 3 3 3 3 3 3 1 1 1
5 2 0 0 0 0 0 0 0 0 0 0 1 1 1 1 0 0 1 4 7 7 6 5 3 1 0 1 1 2 3 3 3 2 3 3 3 3 3 3 3 3 3 3 3 2 1 0 0
3 1 0 0 0 0 0 0 0 0 0 0 1 2 3 3 1 1 2 5 8 9 7 5 4 2 1 0 0 1 2 2 1 1 1 2 3 3 3 3 3 3 2 2 2 1 0 0 0
1 0 0 0 0 0 0 0 0 0 0 0 1 4 8 6 3 3 3 5 7 7 7 6 5 3 1 0 0 0 1 1 0 0 1 2 2 2 2 2 2 1 1 1 1 0 0 0 0
0 0 0 0 0 0 0 0 1 0 0 1 3 7 10 8 5 5 6 6 6 7 7 6 5 4 2 0 0 0 0 0 0 1 2 2 1 1 1 0 0 0 0 0 0 0 0 0 0
0 0 0 0 0 0 0 0 0 0 0 2 7 11 10 8 6 7 8 8 8 8 8 7 6 4 2 0 0 0 0 0 0 2 3 2 1 0 0 0 0 0 0 0 0 0 0 0 0
0 0 0 0 0 0 0 0 0 0 1 5 10 11 9 8 8 8 10 11 11 10 9 8 7 5 2 0 1 2 1 1 1 2 2 2 1 1 1 1 1 0 0 0 0 0 0 0 0
0 0 0 0 0 0 0 0 0 0 2 6 9 10 9 9 9 9 11 13 13 11 10 10 9 7 4 3 3 2 2 2 3 4 3 3 2 2 2 2 2 1 1 0 0 0 0 0 0
0 0 0 0 0 0 0 0 0 1 3 7 10 12 11 10 11 11 12 14 14 11 11 12 12 11 9 7 4 2 3 4 6 6 5 3 3 3 3 3 3 3 2 1 1 1 0 0 0
0 0 0 0 0 0 0 0 0 2 5 9 13 15 14 12 13 15 17 19 17 14 13 15 17 16 13 9 5 3 4 5 6 8 7 4 3 4 3 3 3 3 3 2 1 1 1 1 0
0 0 0 0 0 0 0 1 1 2 5 10 14 17 17 17 18 20 24 27 24 21 20 21 20 19 15 10 6 4 5 5 7 8 7 4 4 4 4 3 3 3 3 3 3 2 2 2 1
0 0 0 0 0 0 0 1 1 1 4 8 13 18 21 23 24 26 31 33 30 30 31 26 22 22 19 13 9 7 7 8 9 6 4 4 4 5 4 3 3 4 3 3 3 4 3 3 3
0 0 0 0 0 0 0 1 1 2 3 7 13 20 25 28 31 35 38 38 38 41 39 32 27 27 23 18 14 13 13 15 12 8 5 5 5 5 5 4 5 4 4 3 4 4 4 3 3
0 0 0 0 0 0 1 1 2 2 3 6 13 21 28 32 38 44 45 45 49 51 47 38 32 30 25 21 20 19 19 19 16 12 12 11 8 6 5 7 7 6 5 4 4 4 4 3 3
0 0 0 0 0 0 1 2 2 1 1 4 12 21 29 37 47 53 53 55 60 62 56 46 38 34 27 21 22 23 21 19 16 15 16 17 14 10 8 9 10 10 8 7 6 5 4 3 3
0 0 0 0 0 0 1 2 2 1 0 3 9 18 27 39 53 62 62 63 67 70 65 55 47 41 32 25 22 23 22 19 17 17 19 21 20 17 13 13 13 13 11 9 8 7 5 4 3
0 0 0 0 0 0 0 1 2 2 1 3 8 16 24 37 56 69 71 68 69 72 70 61 54 48 41 32 28 27 26 23 20 19 20 22 22 20 17 16 16 15 11 8 8 9 8 5 4
0 0 0 0 0 0 0 1 3 3 3 4 9 15 22 35 56 73 77 73 71 70 70 67 61 55 49 42 37 35 33 28 23 20 21 22 22 19 18 19 20 17 13 11 12 13 12 8 5
0 0 0 0 0 0 0 0 2 4 4 5 10 17 24 36 56 74 80 78 74 70 69 69 66 61 56 48 42 39 36 31 25 23 24 25 22 18 17 21 23 21 18 17 17 18 14 9 6
0 0 0 0 0 0 0 0 1 2 4 6 10 18 27 39 56 72 80 81 77 72 68 68 68 67 62 52 44 42 38 32 27 27 29 27 23 20 19 22 24 22 20 20 20 19 14 10 9
0 0 0 0 0 0 0 0 1 3 6 7 11 19 30 43 57 70 79 83 80 75 71 70 71 71 66 56 49 46 41 34 31 30 30 27 23 22 23 24 25 24 21 19 18 16 14 15 16
0 0 0 0 0 0 0 1 3 6 8 9 11 19 30 42 55 67 75 79 79 76 74 74 74 71 68 61 54 49 43 37 33 32 31 28 23 22 25 26 26 26 22 18 15 14 14 18 21
0 0 0 0 0 0 0 1 5 7 8 10 13 19 27 38 50 59 64 67 71 71 70 73 74 71 68 64 58 52 46 41 37 37 39 34 25 22 25 27 26 25 23 18 15 13 13 15 18
0 0 0 0 0 0 0 1 5 8 8 10 15 20 26 35 43 49 52 57 62 64 66 72 74 72 69 65 60 55 52 49 45 45 46 42 32 28 29 30 27 25 23 21 17 14 13 12 12
0 0 0 0 0 0 0 1 4 9 10 12 17 22 27 33 39 43 49 56 61 64 70 75 75 72 69 66 62 60 58 56 53 51 50 46 40 36 33 31 27 24 22 20 17 15 14 12 10
0 0 0 0 0 0 1 2 5 8 11 14 19 24 28 33 38 44 50 58 63 67 74 78 75 71 67 65 64 63 61 60 58 54 50 47 43 39 34 30 26 23 20 19 17 16 14 12 10

GEFSSGP_con_probscp_198.txt.gz
Probability
3 2 2 3 2 1 0 0 1 0 0 0 0 0 0 0 0 0 0 1 1 1 0 0 0 0 0 0 0 0 0 0 0 0 0 0 0 0 0 0 0 0 0 0 0 0 0 0 0
2 1 1 2 1 0 0 1 2 1 0 0 0 0 0 0 0 0 0 0 0 0 0 0 0 0 0 0 0 0 0 0 0 0 0 0 0 0 0 0 0 0 0 0 0 0 0 0 0
1 0 0 0 0 0 0 1 3 3 1 0 0 0 0 0 0 0 0 0 0 0 0 0 0 0 0 0 0 0 0 0 0 0 0 0 0 0 0 0 0 0 0 0 0 0 0 0 0
0 0 0 0 0 0 1 3 4 3 1 1 0 0 0 0 1 1 0 1 1 1 0 1 1 1 1 0 0 0 0 0 0 0 0 0 0 0 0 0 0 0 0 0 0 0 0 0 0
0 0 0 0 0 1 2 3 3 2 1 1 0 0 1 2 3 2 2 2 2 2 1 1 2 2 1 0 0 0 0 0 0 0 0 0 0 0 0 0 0 0 0 0 0 0 0 0 0
0 0 0 0 0 1 3 4 3 3 2 1 0 0 2 7 8 5 3 3 3 3 2 2 2 1 1 0 0 0 0 0 0 0 0 0 0 0 0 0 0 0 0 0 0 0 0 0 0
0 0 0 0 0 1 3 5 6 4 3 1 0 0 4 12 14 10 5 4 4 3 3 2 1 0 0 0 0 0 0 0 0 0 0 0 0 0 0 0 0 0 0 0 0 0 0 0 0
0 0 0 0 0 0 2 5 5 4 3 2 1 2 8 17 21 17 10 7 5 4 3 3 2 1 0 0 0 0 0 0 0 0 0 0 0 0 0 0 0 0 0 0 0 0 0 0 0
0 0 0 0 0 0 2 4 4 4 5 5 5 7 15 23 27 25 17 10 6 4 3 3 3 2 1 0 0 0 0 0 0 0 0 0 0 0 0 0 0 0 0 0 0 0 0 0 0
0 0 0 0 0 0 2 4 5 5 7 9 13 17 21 28 32 30 24 15 8 4 4 3 3 2 1 0 0 0 0 0 0 0 0 0 0 0 0 0 0 0 0 0 0 0 0 0 0
0 0 0 0 0 0 1 3 5 6 6 10 17 21 23 27 30 31 29 23 14 8 6 5 3 2 1 0 0 0 0 0 0 0 0 0 0 0 0 0 0 0 0 0 0 0 0 0 0
0 0 0 0 0 0 1 2 3 4 5 9 15 18 20 21 23 27 29 27 20 14 11 8 5 2 1 0 0 0 0 0 0 0 0 0 0 0 0 0 0 0 0 0 0 0 0 0 0
0 0 0 0 0 1 1 2 2 4 6 9 12 14 14 16 19 23 27 27 23 18 14 11 8 5 3 1 0 0 0 0 0 0 0 0 0 0 0 0 0 0 0 0 0 0 0 0 0
0 0 0 0 0 1 2 4 5 7 10 11 10 10 10 14 21 26 28 27 26 23 17 13 11 9 5 2 0 0 0 0 0 0 0 0 0 0 0 0 0 0 0 0 0 0 0 0 0
0 0 0 0 0 1 3 6 8 10 13 12 8 8 10 17 27 33 32 31 31 30 25 19 14 10 7 4 1 1 1 0 0 0 0 0 0 0 0 0 0 0 0 0 0 0 0 0 0
0 0 0 0 0 1 3 5 7 12 14 11 7 9 13 21 31 38 38 36 36 36 32 25 16 10 7 4 3 3 2 1 1 0 0 0 0 0 0 0 0 0 0 0 0 0 0 0 0
0 0 0 0 1 2 3 4 6 12 15 11 8 11 17 25 33 39 41 40 41 40 35 27 18 10 6 4 4 4 3 1 1 1 1 1 0 0 0 0 0 0 0 0 0 0 0 0 0
0 0 0 0 1 3 4 4 6 12 15 14 12 13 19 26 32 37 41 43 44 43 38 31 23 14 7 4 4 4 3 1 0 1 1 1 1 1 1 1 1 1 0 0 0 0 0 0 0
0 0 0 0 1 2 3 4 5 10 15 17 17 17 19 25 31 39 45 47 48 46 43 40 33 22 12 8 5 4 3 1 0 0 1 1 2 3 3 3 3 2 1 0 0 0 0 0 0
0 0 0 0 0 1 2 2 3 8 14 18 20 20 22 28 36 45 50 52 53 52 50 49 42 30 19 12 7 5 3 1 0 1 2 3 4 6 6 5 4 3 1 1 0 0 0 0 0
0 0 0 0 1 2 3 3 3 7 12 17 21 23 26 34 44 52 56 57 58 56 53 52 45 34 25 17 11 7 4 2 1 1 3 3 3 6 7 7 6 4 3 2 1 1 0 0 0
0 0 0 0 1 2 3 3 3 7 11 15 20 25 32 40 50 56 60 62 61 57 52 49 44 37 30 25 19 12 7 3 1 1 2 2 3 5 7 8 6 4 2 2 2 1 0 0 0
0 0 0 0 0 1 1 2 3 6 10 14 19 30 39 47 54 59 63 65 64 58 53 47 42 38 34 31 25 17 10 5 3 2 2 3 4 4 5 6 4 2 1 1 1 1 0 0 0
0 0 0 0 0 0 0 1 2 3 7 12 21 34 46 51 56 62 65 66 65 61 55 48 41 38 37 34 30 21 13 9 7 5 4 4 5 4 3 3 2 1 0 0 0 0 0 0 0
0 0 0 0 0 0 0 0 1 1 5 13 23 36 48 55 58 63 67 68 66 64 58 49 42 39 37 36 32 25 17 13 11 8 5 4 4 4 3 3 1 0 0 0 0 0 0 0 0
0 0 0 0 0 0 0 0 0 2 7 16 26 36 48 55 57 61 66 68 67 64 58 50 43 40 38 36 31 26 21 18 14 9 6 4 4 4 3 2 1 0 0 0 0 0 0 0 0
0 0 0 0 0 0 0 0 1 6 11 18 27 36 45 49 51 56 62 64 63 61 57 50 44 40 38 36 31 26 24 21 17 11 6 4 3 3 2 1 0 0 0 0 0 0 0 1 1
0 0 0 0 0 0 0 0 2 8 15 19 27 36 42 44 47 51 57 58 57 56 55 52 48 43 39 36 31 26 23 21 18 13 9 5 3 1 1 0 0 0 1 1 1 1 2 2 2
0 0 0 0 0 0 0 0 3 9 16 21 28 34 39 44 48 53 55 54 53 54 54 53 51 47 41 36 31 26 23 21 18 14 12 8 3 1 0 1 1 1 2 2 2 3 3 3 3
0 0 0 0 0 0 0 0 3 10 17 23 29 34 38 44 51 58 59 54 52 55 54 54 54 49 43 37 32 28 24 21 16 14 13 10 5 1 1 2 2 2 3 3 3 4 4 4 3

GEFSSGP_con_probscp_204.txt.gz
Probability
5 3 1 0 0 0 0 0 0 0 0 0 0 0 0 0 0 0 0 0 0 0 0 0 0 0 0 0 0 0 0 0 0 0 0 0 0 0 0 0 0 0 0 0 0 0 0 0 0
2 1 0 0 0 0 0 0 0 0 0 0 0 0 0 0 0 0 0 0 0 0 0 0 0 0 0 0 0 0 0 0 0 0 0 0 0 0 0 0 0 0 0 0 0 0 0 0 0
0 0 0 0 0 0 0 0 0 0 0 0 0 0 0 0 0 0 0 0 0 0 0 1 1 0 0 0 0 0 0 0 0 0 0 0 0 0 0 0 0 0 0 0 0 0 0 0 0
0 0 0 0 0 0 0 1 1 0 0 0 0 0 0 0 0 0 0 0 0 0 1 2 2 1 1 0 0 0 0 0 0 0 0 0 0 0 0 0 0 0 0 0 0 0 0 0 0
0 0 0 0 0 0 0 1 1 1 1 0 0 0 0 0 0 0 0 0 0 1 2 3 3 3 2 2 1 1 1 0 0 0 0 0 0 0 0 0 0 0 0 0 0 0 0 0 0
0 0 0 0 0 0 0 1 1 2 1 1 0 0 0 0 0 0 0 0 0 1 2 2 3 3 3 4 3 2 1 0 0 0 0 0 0 0 0 0 0 0 0 0 0 0 0 0 0
0 0 0 0 1 1 1 0 1 1 1 1 1 1 0 0 1 1 1 0 0 0 1 1 1 2 3 3 3 2 1 0 0 0 0 0 0 0 0 0 0 0 0 0 0 0 0 0 0
0 0 0 0 1 1 1 0 1 1 0 0 1 1 1 1 2 3 2 1 1 1 2 1 0 1 1 1 2 1 0 0 0 0 0 0 0 0 0 0 0 0 0 0 0 0 0 0 0
0 0 0 0 0 1 2 1 1 1 0 0 0 2 4 7 7 6 4 3 2 3 3 2 1 0 0 0 0 0 0 0 0 0 0 0 0 0 0 0 0 0 0 0 0 0 0 0 0
0 0 0 0 0 2 3 2 2 2 0 1 4 8 13 15 12 8 6 5 4 4 3 3 2 1 0 0 0 0 0 0 0 0 0 0 0 0 0 0 0 0 0 0 0 0 0 0 0
0 0 0 0 1 2 3 3 4 3 1 3 11 18 22 20 14 8 6 6 6 5 4 3 2 1 0 0 0 0 0 0 0 0 0 0 0 0 0 0 0 0 0 0 0 0 0 0 0
0 0 0 0 1 2 3 3 4 3 2 6 17 26 26 20 13 8 6 6 6 6 5 4 2 1 0 0 0 0 0 0 0 0 0 0 0 0 0 0 0 0 0 0 0 0 0 0 0
0 0 0 0 0 1 2 3 3 2 3 9 18 24 24 19 12 8 7 7 6 6 6 5 3 1 0 0 0 0 0 0 0 0 0 0 0 0 0 0 0 0 0 0 0 0 0 0 0
0 0 0 0 0 1 1 2 2 3 5 9 14 18 18 16 12 11 11 10 8 6 6 6 4 1 0 0 0 0 0 0 0 0 0 0 0 0 0 0 0 0 0 0 0 0 0 0 0
0 0 0 0 0 0 0 0 1 3 6 8 10 12 13 11 12 15 16 13 11 8 6 6 5 3 1 0 0 0 0 0 0 0 0 0 0 0 0 0 0 0 0 0 0 0 0 0 0
0 0 0 0 0 0 0 0 1 3 5 6 6 8 8 7 9 14 17 15 12 9 7 6 5 3 1 0 0 0 0 0 0 0 0 0 0 0 0 0 0 0 0 0 0 0 0 0 0
0 0 0 0 0 0 0 0 0 2 4 5 5 5 5 5 6 10 14 15 12 10 9 6 4 2 0 0 0 0 0 0 0 0 0 0 0 0 0 0 0 0 0 0 0 0 0 0 0
0 0 0 0 0 0 0 0 0 1 3 4 4 4 3 3 3 7 13 15 14 12 10 8 4 2 0 0 0 0 0 0 0 0 0 0 0 0 0 1 0 0 0 0 0 0 0 0 0
0 0 0 0 0 0 0 0 1 2 2 3 4 3 2 1 2 5 13 19 20 17 14 10 5 2 1 0 0 0 0 0 0 0 0 0 0 0 0 0 0 0 0 0 0 0 0 0 0
0 0 0 0 0 0 0 0 1 2 2 2 3 3 2 1 2 6 15 24 26 22 17 12 6 3 2 1 0 0 0 0 0 0 0 0 0 0 0 0 0 0 0 0 0 0 0 0 0
0 0 0 0 0 0 0 0 0 1 2 3 3 3 2 2 5 10 18 26 28 22 17 11 6 2 1 1 1 1 1 1 0 0 0 0 0 0 1 0 0 0 0 0 0 1 0 0 0
0 0 0 0 0 0 0 0 0 1 2 3 2 1 2 4 8 14 21 27 27 19 12 8 6 3 2 2 2 2 2 2 1 0 0 0 0 0 0 0 0 0 0 0 0 0 0 0 0
0 0 0 0 0 0 0 0 0 0 1 2 1 0 2 6 11 17 23 26 23 16 8 7 7 6 6 5 5 4 3 2 1 0 1 0 0 0 1 1 2 1 0 0 0 0 0 0 0
0 0 0 0 0 0 0 0 0 0 0 0 0 0 4 9 13 18 22 23 20 15 12 11 11 11 11 11 9 6 5 4 2 1 1 0 0 1 1 2 2 2 0 0 0 0 0 0 0
0 0 0 0 0 0 0 0 0 0 0 0 0 1 5 11 14 17 19 20 21 21 21 21 20 18 19 19 16 13 11 8 5 3 3 2 1 1 1 1 2 1 0 0 0 0 0 0 0
0 0 0 0 0 0 0 0 0 0 0 1 1 2 5 9 12 15 17 21 25 29 32 33 29 26 25 26 24 21 18 14 10 7 6 4 2 1 0 0 0 0 0 1 1 0 0 0 0
0 0 0 0 0 0 0 0 0 0 1 3 3 3 4 7 11 14 18 23 26 31 36 38 34 30 29 29 27 24 22 20 15 10 8 5 2 0 0 0 0 0 0 1 2 1 0 0 0
0 0 0 0 0 0 0 0 0 1 3 5 5 4 6 9 12 15 19 23 26 29 34 38 36 32 29 27 25 23 23 21 17 14 11 6 3 1 0 0 0 1 1 2 2 1 0 0 0
0 0 0 0 0 0 0 0 0 1 4 7 7 7 7 11 15 18 21 23 26 31 34 37 35 30 26 24 22 22 22 21 18 16 13 9 5 3 1 0 0 1 2 2 2 1 0 1 1
0 0 0 0 0 0 0 0 0 1 4 7 8 7 8 11 16 21 22 24 27 32 36 36 33 26 22 22 22 22 22 21 18 15 12 11 8 4 2 1 0 1 3 3 1 0 0 1 0

GEFSSGP_con_probscp_210.txt.gz
Probability
8 8 9 9 6 2 0 0 0 0 0 0 0 0 0 0 0 0 0 0 0 0 0 0 0 0 0 0 0 0 0 0 0 0 0 0 0 0 0 0 0 0 0 0 0 0 0 0 0
8 8 8 8 4 1 0 0 0 0 0 0 0 0 0 0 0 0 0 0 0 0 0 0 0 0 0 0 0 0 0 0 0 0 0 0 0 0 0 0 0 0 0 0 0 0 0 0 0
6 5 5 3 1 0 0 0 0 0 0 0 0 0 0 0 0 0 0 0 0 0 0 0 0 0 0 0 0 0 1 0 0 0 0 0 0 0 0 0 0 0 0 0 0 0 0 0 0
4 3 2 0 0 0 0 0 0 0 0 0 0 0 0 0 0 0 0 0 0 0 0 0 0 0 0 1 0 0 0 0 0 0 0 0 0 0 0 0 0 0 0 0 0 0 0 0 0
3 2 1 0 0 0 0 0 0 0 0 0 0 0 0 0 0 0 0 0 0 0 0 0 0 0 0 0 0 0 0 0 0 0 0 0 0 0 0 0 0 0 0 0 0 0 0 0 0
2 1 0 0 0 0 0 0 0 0 0 0 0 0 1 1 0 0 0 0 0 0 0 0 0 1 0 0 0 0 0 0 0 0 0 0 0 0 0 0 0 0 0 0 0 0 0 0 0
2 1 0 0 0 0 0 0 0 0 0 0 0 1 2 3 2 0 0 0 0 0 0 0 0 1 0 0 1 0 0 0 0 0 0 0 0 0 0 0 0 0 0 0 0 0 0 0 0
1 0 0 0 0 0 0 0 0 0 0 0 0 1 4 6 5 2 1 1 1 1 1 0 1 1 1 0 0 0 0 0 0 0 0 0 0 0 0 0 0 0 0 0 0 0 0 0 0
0 0 0 0 0 0 0 0 0 0 0 1 2 3 6 8 7 4 3 2 2 2 2 1 1 1 1 0 0 0 0 0 0 0 0 0 0 0 0 0 0 0 0 0 0 0 0 0 0
0 0 0 0 0 0 0 0 0 0 0 2 5 8 8 9 9 6 4 3 3 3 3 2 1 0 0 0 0 0 0 0 0 0 0 0 0 0 0 0 0 0 0 0 0 0 0 0 0
0 0 0 0 0 0 0 0 0 0 0 2 7 11 12 10 8 6 4 3 4 4 4 3 1 0 0 0 0 0 0 0 0 0 0 0 0 0 0 0 0 0 0 0 0 0 0 0 0
0 0 0 0 0 0 0 0 0 0 0 2 7 12 12 10 7 5 4 4 5 6 5 3 1 0 0 0 0 0 0 0 0 0 0 0 0 0 0 0 0 0 0 0 0 0 0 0 0
0 0 0 0 0 0 0 0 0 0 1 2 6 9 9 8 6 5 4 5 6 6 5 3 2 1 0 0 0 0 0 0 0 0 0 0 0 0 1 1 0 0 0 0 0 0 0 0 0
0 0 0 0 0 0 0 0 0 0 1 3 4 4 4 5 5 6 6 7 7 6 4 2 2 1 0 0 0 0 0 0 0 0 0 0 0 1 2 1 0 0 0 0 0 0 0 0 0
0 0 0 0 0 0 0 0 0 0 2 3 3 1 2 3 4 6 7 8 8 6 3 1 2 2 1 1 1 1 1 0 0 0 0 0 0 1 2 2 0 0 0 0 0 0 0 0 0
0 0 0 0 0 0 0 0 0 0 1 2 2 1 1 2 2 5 8 8 8 6 5 3 3 3 3 2 2 2 2 1 1 0 0 0 0 1 2 2 1 0 0 0 0 0 0 0 0
0 0 0 0 0 0 0 0 0 0 0 1 1 1 1 1 1 4 7 8 9 10 10 8 6 5 5 5 4 3 3 3 2 1 1 0 0 0 1 1 1 0 0 0 0 0 0 1 1
0 0 0 0 0 0 0 0 0 0 1 2 2 3 3 2 1 4 6 9 11 15 16 14 11 9 8 8 6 5 4 3 3 3 2 1 0 0 0 1 1 0 0 0 1 1 1 1 2
0 0 0 0 0 0 0 0 0 0 2 3 4 5 5 3 3 3 5 7 12 16 19 18 16 13 11 10 8 6 4 3 3 3 2 1 0 0 0 0 1 0 0 0 1 1 1 1 2
0 0 0 0 0 0 0 0 0 0 1 2 3 4 4 4 5 5 5 7 11 16 19 20 19 17 14 11 9 8 7 5 3 3 2 1 0 0 0 0 0 0 0 0 1 1 1 1 2
0 0 0 0 0 0 0 0 0 0 0 1 1 2 3 5 7 8 11 14 16 19 21 22 20 18 16 13 11 11 11 7 4 4 4 2 1 1 2 2 1 1 1 2 2 2 2 2 2
0 0 0 0 0 0 0 0 0 0 0 0 0 1 2 4 6 10 16 21 21 20 22 23 22 20 19 15 13 14 13 9 5 5 6 5 4 5 5 5 4 3 3 4 4 4 4 6 6
0 0 0 0 0 0 0 0 0 0 0 0 0 0 1 3 5 10 17 20 19 18 19 21 22 24 22 18 15 15 14 9 6 6 7 8 9 9 8 7 6 5 4 5 5 4 5 8 9
0 0 0 0 0 0 0 0 0 0 0 0 0 1 3 4 6 11 15 17 17 17 17 18 22 25 23 19 18 18 15 12 10 9 9 11 12 12 10 8 6 5 5 5 6 5 5 6 7
0 0 0 0 0 0 0 0 0 0 0 0 1 3 4 6 8 12 16 17 19 20 18 18 23 24 22 20 19 18 16 14 13 12 11 11 12 12 11 9 7 7 7 7 7 7 7 7 8
0 0 0 0 0 0 0 0 1 1 1 2 3 4 4 5 7 13 17 18 19 22 21 21 25 26 24 22 20 17 15 14 14 14 13 12 12 12 11 10 9 9 9 9 10 9 8 9 10
0 0 0 0 0 0 0 0 1 2 3 4 5 4 3 3 7 13 17 18 21 23 23 23 26 28 27 24 23 19 16 17 19 19 17 15 15 14 12 11 11 12 12 11 11 11 10 11 11
0 0 0 0 0 0 0 0 1 3 4 5 5 4 2 4 9 14 18 21 23 25 25 24 26 29 28 27 26 23 20 21 23 21 20 19 19 18 15 14 15 15 13 13 13 13 13 14 13
0 0 0 0 0 0 0 0 1 4 6 6 6 5 5 8 12 18 22 25 27 27 27 27 29 31 32 31 27 23 22 23 24 23 21 20 22 23 22 21 21 18 15 14 13 12 13 14 14
0 0 0 0 0 0 0 1 2 5 7 7 6 6 8 12 15 20 24 28 29 30 31 30 32 36 36 32 26 22 23 25 25 24 21 21 23 26 27 27 25 22 17 14 12 10 10 11 12

GEFSSGP_con_probscp_216.txt.gz
Probability
6 13 26 32 22 7 1 0 0 0 0 0 0 0 0 0 0 0 0 0 0 0 0 0 0 1 2 2 1 0 0 0 0 0 0 0 0 0 0 0 0 0 0 0 0 0 0 0 0
7 15 25 25 13 3 0 0 0 0 0 0 0 0 0 0 0 0 0 0 0 0 0 0 1 2 2 1 0 0 0 0 0 0 0 0 0 0 0 0 0 0 0 0 0 0 0 0 0
9 16 21 15 5 0 0 0 0 0 0 0 0 0 0 0 0 0 0 0 1 1 1 1 2 2 1 0 0 1 1 0 0 0 0 0 0 0 0 0 0 0 0 0 0 0 0 0 1
14 16 14 7 1 0 0 0 0 0 0 0 0 0 0 0 0 0 0 0 2 3 2 1 2 2 0 1 1 1 1 0 0 0 0 0 0 0 0 0 0 0 0 0 0 0 0 0 1
13 11 7 2 0 0 0 0 0 0 0 0 0 0 0 0 0 0 1 2 4 5 2 2 2 2 1 1 2 2 1 0 0 0 0 0 0 0 0 0 0 0 0 0 0 0 0 0 1
7 5 2 0 0 0 0 0 0 0 0 1 2 1 0 0 0 1 2 3 4 5 2 1 2 1 1 2 3 3 2 2 1 1 0 0 0 0 0 0 0 0 0 0 0 0 0 0 0
2 1 0 0 0 0 0 0 0 0 0 1 2 3 2 1 1 2 3 3 3 2 1 0 0 0 1 2 3 3 3 3 2 1 0 0 0 0 0 0 0 0 0 0 0 0 0 0 0
1 0 0 0 0 0 0 0 0 0 0 0 2 5 5 3 2 3 3 3 3 2 1 1 0 0 1 1 2 2 2 2 2 2 1 1 0 0 0 0 0 0 0 0 0 0 0 0 0
0 0 0 0 0 0 0 0 0 0 0 1 4 6 6 4 3 3 3 3 3 3 3 2 0 0 1 1 1 1 1 1 2 4 4 3 1 0 0 0 0 0 0 0 0 0 0 0 0
0 0 0 0 0 0 0 0 0 0 1 4 7 8 6 4 4 3 3 3 4 4 4 2 0 0 0 0 0 0 1 2 3 3 4 4 3 1 1 1 1 1 0 0 0 0 1 0 0
0 0 0 0 0 0 0 0 0 0 1 6 10 10 9 6 5 4 4 5 5 4 5 4 1 0 0 1 1 1 2 3 3 2 2 3 3 2 2 2 2 2 1 0 0 0 0 0 0
0 0 0 0 0 0 0 0 0 1 2 7 11 12 11 10 7 6 6 7 6 5 7 7 4 2 1 2 1 1 2 3 2 1 1 2 3 3 3 3 2 2 1 0 0 0 0 0 0
0 0 0 0 0 0 0 0 1 2 4 8 11 11 11 12 12 11 11 11 9 7 8 7 6 5 4 3 1 1 2 2 3 2 1 3 4 3 3 3 3 2 1 1 1 1 1 2 1
0 0 0 0 0 0 0 0 1 3 5 8 9 9 11 15 18 17 17 16 12 9 10 9 9 9 7 4 2 2 2 2 2 2 1 2 3 3 3 5 6 3 2 2 3 3 3 3 3
0 0 0 0 0 0 0 0 1 2 4 6 8 9 13 19 23 23 23 21 15 12 14 14 12 11 10 6 3 3 3 2 2 2 2 1 2 3 4 6 7 5 4 3 3 4 3 3 4
0 0 0 0 0 0 0 0 0 1 2 5 8 12 18 23 26 26 26 23 19 17 19 16 13 13 13 9 5 3 3 3 3 3 2 1 2 4 5 5 5 4 4 3 3 2 3 3 4
0 0 0 0 0 0 0 0 0 0 2 6 10 15 22 26 27 29 29 26 25 26 24 18 14 14 14 10 6 4 5 5 5 5 4 2 1 3 4 4 4 3 3 2 1 2 2 3 4
0 0 0 0 0 0 0 0 0 0 3 8 14 20 27 30 31 33 33 30 33 36 33 25 18 16 15 11 7 6 8 8 7 9 9 6 3 3 4 5 6 5 3 1 1 3 4 4 3
0 0 0 0 0 0 0 0 1 1 2 8 15 22 30 35 38 40 38 38 42 46 43 35 27 23 21 17 12 11 10 9 10 13 16 15 11 9 8 8 9 8 4 2 4 6 6 4 2
0 0 0 0 0 1 0 1 2 1 1 5 13 20 29 37 45 48 45 45 51 56 51 42 36 31 27 23 18 14 12 11 13 19 24 24 22 19 16 14 12 10 7 6 7 8 7 4 2
0 0 0 0 0 0 0 1 2 2 1 3 9 18 27 39 51 54 52 51 56 59 55 47 43 39 32 26 21 18 18 17 19 26 30 29 27 25 22 19 16 13 9 7 8 10 9 6 5
0 0 0 0 0 0 0 1 2 2 2 4 9 17 26 38 50 57 55 55 57 58 56 53 52 48 39 31 25 22 22 22 25 30 32 30 27 25 25 24 22 18 10 6 7 10 11 9 7
0 0 0 0 0 0 0 0 1 3 4 6 11 18 24 32 45 54 57 57 56 56 57 57 58 57 49 39 31 26 23 23 26 30 31 30 28 26 27 29 28 22 13 8 6 9 12 10 8
0 0 0 0 0 0 0 1 2 4 6 9 12 18 22 27 39 51 57 62 61 58 58 58 59 60 54 45 37 31 26 24 26 29 32 33 32 30 29 29 28 24 19 13 9 9 10 10 8
0 0 0 0 0 0 0 2 5 7 8 10 12 15 20 24 34 46 58 65 67 63 60 59 60 60 56 51 44 38 34 31 29 31 34 36 34 32 28 27 27 26 23 18 14 13 11 10 9
0 0 0 0 0 0 0 4 8 9 9 9 9 11 15 20 29 42 54 61 62 60 58 60 62 62 60 56 52 47 43 38 35 34 36 37 35 31 29 29 29 28 24 20 17 16 15 13 11
0 0 0 0 0 0 1 5 9 10 8 8 8 8 11 16 25 37 47 51 51 53 56 59 63 65 64 61 58 54 49 42 38 36 34 35 34 31 29 30 30 29 26 22 19 19 18 15 12
0 0 0 0 0 0 1 4 7 10 10 9 9 9 10 15 22 32 43 49 51 55 58 60 63 66 65 62 58 53 49 44 39 36 35 34 33 31 28 26 27 28 26 24 22 21 19 16 14
0 0 0 0 0 0 0 2 4 8 11 14 15 14 13 17 23 32 42 51 57 61 63 62 62 63 63 60 56 50 47 44 41 38 37 35 34 31 26 24 25 25 23 22 22 21 20 18 16
0 0 0 1 1 1 0 1 3 7 11 16 19 18 16 20 27 33 42 52 58 62 65 63 60 61 62 60 55 50 47 44 42 40 37 36 34 29 24 23 24 23 21 20 20 19 19 18 17

GEFSSGP_con_probscp_222.txt.gz
Probability
4 3 2 1 1 0 0 0 0 0 0 0 0 0 0 0 0 0 0 0 0 0 0 1 2 3 3 2 1 0 0 0 0 0 0 0 0 0 0 0 0 0 0 0 0 0 0 0 0
2 2 2 1 0 0 0 0 0 0 0 0 0 0 0 0 0 0 0 0 0 0 0 1 2 3 3 2 1 0 0 0 0 0 0 0 0 0 0 0 0 0 0 0 0 0 0 0 0
1 1 1 1 0 0 0 0 1 1 1 1 0 0 0 0 0 1 1 0 0 0 0 1 3 3 2 1 0 0 0 0 0 0 0 0 0 0 0 0 1 1 0 0 0 0 0 0 0
2 2 1 0 0 0 0 1 2 2 2 3 2 1 0 1 3 4 3 1 0 0 1 2 3 2 1 0 0 0 0 0 0 0 0 0 0 0 0 0 1 1 0 0 0 0 0 0 0
2 1 0 0 0 0 0 1 2 2 3 5 5 3 3 5 9 10 6 3 1 0 1 2 3 2 0 0 0 0 0 0 0 0 0 0 0 0 0 0 1 1 0 0 0 0 0 0 0
1 0 0 0 0 0 0 1 2 4 6 7 6 5 5 9 13 12 8 3 1 0 0 1 2 1 0 0 0 0 0 0 0 0 0 0 0 0 0 0 0 0 0 0 0 0 0 0 0
1 0 0 0 0 0 1 1 2 5 8 9 7 5 6 9 12 12 8 3 1 0 0 0 0 0 0 0 0 0 0 0 0 0 0 0 0 0 0 0 0 0 0 0 0 0 0 0 0
1 0 0 0 0 0 1 1 1 4 7 8 7 5 7 10 13 13 9 5 2 1 0 0 0 0 0 0 0 0 0 0 0 0 0 0 0 0 0 0 0 0 0 0 0 0 0 0 0
1 0 0 0 0 0 1 2 2 3 5 7 6 7 9 12 15 15 12 8 4 1 0 0 0 0 0 0 0 0 0 0 0 0 0 0 0 0 0 0 0 0 0 0 0 0 0 0 0
0 0 0 0 0 0 2 3 3 2 4 6 7 8 10 14 18 17 14 10 6 2 0 0 0 0 0 0 0 0 0 0 0 0 0 0 0 0 0 0 0 0 0 0 0 0 0 0 0
0 0 0 0 0 1 2 3 3 2 2 5 8 8 10 14 17 17 14 11 8 5 2 1 1 1 0 0 0 0 0 0 0 1 0 0 0 0 0 0 0 0 0 0 0 0 0 0 0
0 0 0 0 0 1 2 2 3 3 3 5 6 7 9 13 15 15 14 12 11 9 6 2 2 2 1 1 1 0 0 0 0 0 0 0 0 0 0 0 0 0 0 0 0 0 0 0 0
0 0 0 0 0 1 2 3 4 5 5 5 6 7 9 12 15 16 15 13 12 11 9 4 2 2 2 2 2 1 0 0 0 0 0 0 0 0 1 0 0 0 0 0 0 0 0 0 0
0 0 0 0 0 1 3 4 6 7 6 5 6 8 11 13 17 19 19 15 13 12 10 5 1 1 2 2 2 1 0 0 0 0 0 0 0 0 0 0 0 0 0 0 0 0 0 0 0
0 0 0 0 0 0 1 3 6 9 8 6 8 12 14 17 20 22 20 17 15 13 9 5 2 1 1 1 1 0 0 0 1 1 1 0 0 0 0 0 0 0 0 0 0 0 0 0 0
0 0 0 0 0 0 0 2 5 10 10 9 11 16 19 21 24 24 22 18 18 16 9 3 2 1 0 0 0 0 0 1 2 2 2 1 1 1 0 0 0 0 0 0 0 0 0 0 0
0 0 0 0 0 0 0 2 6 9 9 9 13 18 22 26 28 27 24 21 21 18 9 3 2 2 1 0 0 0 0 1 2 3 3 3 3 2 1 0 0 0 0 0 0 0 0 0 0
0 0 0 0 0 0 1 2 5 7 6 6 10 17 24 28 30 30 28 25 23 18 11 8 7 5 2 0 0 0 0 0 1 3 4 4 4 3 1 0 0 0 0 0 0 0 0 0 0
0 0 0 0 0 1 2 4 5 6 5 5 8 14 21 27 30 31 31 29 25 20 17 16 15 10 4 0 0 0 0 0 0 1 3 3 4 3 2 2 1 0 0 0 0 0 0 0 0
0 0 0 0 0 2 4 4 5 7 6 6 8 13 19 26 31 34 36 35 30 25 24 24 20 13 6 2 1 1 1 0 0 1 1 2 3 3 3 3 2 1 1 1 0 0 0 0 0
0 0 0 0 0 2 2 2 4 7 9 9 10 15 21 27 32 37 40 40 34 29 29 28 22 15 8 5 3 2 2 1 1 1 1 1 3 4 3 3 3 3 2 2 1 0 0 0 0
0 0 0 0 0 1 1 1 2 5 10 12 13 17 22 26 32 39 43 41 36 32 31 29 25 19 12 7 5 3 3 3 3 2 1 1 3 4 4 3 3 3 3 3 2 1 0 0 0
0 0 0 0 0 0 0 1 2 5 11 13 12 15 20 24 31 38 42 39 35 32 30 28 27 23 17 11 7 4 4 4 4 3 2 2 2 3 3 3 3 3 3 3 3 2 1 0 0
0 0 0 0 0 0 0 1 2 5 11 13 12 13 17 21 26 33 38 37 34 32 31 31 30 26 21 17 12 7 6 5 5 5 6 4 1 1 3 3 3 4 4 4 4 3 1 1 0
0 0 0 0 0 0 0 0 1 5 11 13 13 13 14 16 20 27 34 36 35 35 35 35 34 30 25 22 19 13 9 7 7 7 8 6 2 1 3 3 4 5 5 6 5 4 3 3 2
0 0 0 0 0 0 0 0 2 6 12 15 15 13 12 14 18 25 32 34 34 36 37 36 34 31 28 26 25 21 16 12 9 7 7 6 3 3 3 3 4 5 6 6 6 6 7 5 3
0 0 0 0 0 0 0 1 4 8 13 16 16 14 13 15 18 22 26 27 29 33 35 36 34 31 28 28 27 25 21 16 10 6 5 5 5 4 4 4 4 5 5 5 6 8 8 6 3
0 0 0 0 0 0 0 1 3 8 13 16 17 15 15 17 18 20 22 23 25 28 33 37 37 32 28 28 26 24 21 16 10 6 5 5 6 5 5 5 6 6 6 6 8 8 7 5 3
0 0 0 0 0 0 0 0 2 7 12 17 19 18 17 18 19 20 23 27 28 28 32 36 37 33 28 27 26 24 20 17 14 10 7 6 6 5 5 5 6 6 7 9 9 8 6 5 4
0 0 0 0 0 0 0 0 2 6 13 19 21 19 17 18 20 22 27 34 33 30 31 33 35 33 28 26 26 25 22 19 17 13 9 6 5 5 4 4 4 5 7 10 10 8 6 5 3

GEFSSGP_con_probscp_228.txt.gz
Probability
0 0 0 0 0 0 0 0 0 0 0 0 0 0 0 0 0 0 0 0 0 0 0 0 0 0 0 0 0 0 0 0 0 0 0 0 0 0 0 0 0 0 0 0 0 0 0 0 0
0 0 0 0 0 0 0 0 0 0 0 0 0 0 0 0 0 0 0 0 0 0 0 0 0 0 0 0 0 0 0 0 0 0 0 0 0 0 0 0 0 0 0 0 0 0 0 0 0
0 0 0 0 0 0 0 0 0 0 0 0 0 0 0 0 0 0 0 0 0 0 0 0 0 0 0 0 0 0 0 0 0 0 0 0 0 0 0 0 0 0 0 0 0 0 0 0 0
0 0 0 0 0 0 0 1 1 1 0 0 0 0 0 0 0 0 0 0 0 0 0 0 0 0 0 0 0 0 0 0 0 0 0 0 0 0 0 0 0 1 1 1 0 0 0 0 0
0 0 0 0 0 0 1 2 2 2 1 0 0 0 1 1 1 0 0 0 0 0 0 0 0 0 0 0 0 0 0 0 0 0 0 0 0 0 0 0 0 1 1 1 0 0 0 0 0
0 0 0 0 0 0 1 2 3 2 1 0 0 0 1 2 1 0 0 0 0 0 0 0 0 0 0 0 0 0 0 0 0 0 0 0 0 1 0 0 0 0 0 0 0 0 0 0 0
0 0 0 0 0 0 0 1 2 1 0 0 1 2 2 2 2 1 1 0 0 0 0 0 0 0 0 0 0 0 0 0 0 0 0 0 0 0 0 0 0 0 0 0 0 0 0 0 0
0 0 0 0 0 0 0 0 0 0 0 0 2 3 3 3 3 3 2 1 0 0 0 0 0 0 0 0 0 0 0 0 0 0 0 0 0 0 0 0 0 0 0 0 0 0 0 0 0
0 0 0 0 0 0 1 1 0 0 0 0 1 2 3 3 3 3 2 1 0 0 0 0 0 0 0 0 0 0 0 0 0 0 0 0 0 0 0 0 0 0 0 0 0 0 0 0 0
0 0 0 0 0 1 2 1 0 0 0 0 1 2 3 3 3 3 2 1 0 0 0 0 0 0 0 0 0 0 0 0 0 0 0 0 0 0 0 0 0 0 0 0 0 0 0 0 0
0 0 0 0 1 2 2 1 0 0 0 0 2 4 4 3 3 3 3 2 0 0 0 0 0 0 0 0 0 0 0 0 0 0 0 0 0 0 0 0 0 0 0 0 0 0 0 0 0
0 0 0 0 1 2 2 1 1 0 0 1 4 7 6 4 4 3 3 3 2 0 0 0 0 0 0 0 0 0 0 0 0 0 0 0 0 0 0 0 0 0 0 0 0 0 0 0 0
0 0 0 0 0 1 2 2 2 1 1 2 5 7 6 5 5 4 4 5 4 3 1 0 0 0 0 0 0 0 0 0 0 0 0 0 0 0 0 0 0 0 0 0 0 0 0 0 0
0 0 0 0 0 0 2 3 3 2 1 1 4 5 5 5 6 6 6 6 6 5 3 1 0 0 0 0 0 0 0 0 0 0 0 0 0 0 0 0 0 0 0 0 0 0 0 0 0
1 1 0 0 0 0 1 2 2 1 1 1 3 3 3 4 7 9 9 8 6 6 4 2 1 0 0 0 0 0 0 0 0 0 0 1 1 1 0 1 1 0 0 0 0 0 0 0 0
0 0 0 0 0 0 0 1 2 2 1 2 2 2 2 4 7 10 11 9 6 4 2 1 1 0 0 0 0 0 0 0 0 0 0 1 2 2 1 2 2 1 0 0 0 0 0 0 0
0 0 0 0 0 0 0 1 2 2 1 1 1 1 3 5 7 9 10 8 5 3 1 0 0 0 0 0 0 0 0 0 0 0 0 1 2 2 1 2 2 1 0 0 0 0 0 0 0
0 0 0 0 0 0 0 1 2 1 0 0 0 1 4 6 7 9 9 7 3 1 0 0 0 0 0 0 0 0 0 0 0 0 0 1 3 3 2 1 1 0 0 0 0 0 0 0 0
0 0 0 0 0 0 0 1 2 1 0 0 0 2 6 7 9 11 10 7 5 3 1 0 0 0 0 0 0 0 0 0 0 0 0 1 3 4 3 2 1 0 0 0 0 0 0 0 0
0 0 0 0 0 0 0 1 2 2 1 0 1 4 8 10 11 12 12 10 9 6 3 1 1 0 0 0 0 0 0 0 0 0 0 0 2 3 4 3 2 1 0 0 0 0 0 0 0
0 0 0 0 0 0 0 0 1 1 2 2 2 5 9 11 12 13 14 14 12 8 4 3 2 1 1 1 0 0 0 0 0 0 0 0 1 2 3 3 3 2 1 1 0 0 0 0 0
0 0 0 0 0 0 0 0 0 1 2 3 4 6 8 10 11 13 15 15 12 7 4 4 4 2 1 2 1 0 0 0 0 0 0 0 0 2 3 3 3 3 3 2 1 1 0 0 0
0 0 0 0 0 0 0 0 0 0 1 3 4 6 8 9 11 12 13 13 10 6 4 4 4 2 1 1 2 1 1 1 0 0 0 1 1 2 3 4 3 3 3 3 3 2 1 0 0
0 0 0 0 0 0 0 0 0 0 1 3 4 6 7 9 10 11 11 10 8 5 4 4 3 2 1 2 3 3 4 3 1 0 1 2 3 4 5 5 4 4 3 3 3 3 2 1 0
0 0 0 0 0 0 0 0 0 0 1 2 5 6 7 8 9 10 9 8 7 5 3 2 2 2 3 5 7 7 5 4 2 1 2 3 4 5 6 5 5 4 4 3 3 3 3 2 1
0 0 0 0 0 0 0 0 1 1 1 2 4 7 7 7 7 8 8 7 8 6 3 2 3 3 4 6 8 7 5 5 4 4 5 6 6 6 5 4 4 4 3 3 3 3 3 2 1
0 0 0 0 0 0 0 0 1 2 2 3 5 7 7 6 5 6 8 9 8 7 6 6 5 5 5 5 5 5 5 6 7 7 7 7 7 5 3 3 3 3 3 3 3 3 3 2 1
0 0 0 0 0 0 0 0 0 1 2 4 5 6 7 6 5 6 8 10 9 9 10 9 8 8 6 4 4 4 5 6 7 8 8 7 5 3 2 3 3 3 3 3 3 3 3 3 2
0 0 0 0 0 0 0 0 0 0 1 4 5 5 6 5 5 5 8 10 11 12 12 10 9 8 7 6 5 4 5 6 8 9 8 6 3 1 2 3 3 3 3 3 3 3 3 3 3
0 0 0 0 0 0 0 0 0 0 2 5 6 5 5 5 4 6 9 10 12 14 13 10 7 7 9 8 6 5 6 8 9 9 8 6 3 2 3 4 4 3 3 3 3 3 3 3 3

GEFSSGP_con_probscp_234.txt.gz
Probability
3 4 6 6 4 1 0 0 0 0 0 0 0 0 0 0 0 0 0 0 0 0 0 0 0 0 0 0 0 0 0 0 0 0 0 0 0 0 0 0 0 0 0 1 2 3 3 4 5
2 4 6 5 2 0 0 0 0 0 0 0 0 0 0 0 0 0 0 0 0 0 0 0 0 0 0 0 0 0 0 0 0 0 0 0 0 0 0 0 0 0 0 1 2 2 2 3 3
2 3 4 2 0 0 0 0 0 0 0 0 0 0 0 0 0 0 0 0 0 0 0 0 0 0 0 0 0 0 0 0 0 0 0 0 0 0 1 1 1 1 0 0 1 1 1 1 1
2 2 2 1 0 0 0 0 1 0 0 0 0 0 0 0 0 0 0 0 0 0 0 0 0 0 0 0 0 0 0 0 0 0 0 0 0 0 1 1 1 0 0 0 0 0 0 0 0
2 1 1 0 0 0 0 0 0 0 0 0 0 0 0 0 0 0 0 0 0 0 0 0 0 0 0 0 0 0 0 0 0 0 0 0 0 0 1 1 0 0 0 0 0 0 0 0 0
2 1 0 0 0 0 0 0 0 0 0 0 0 0 1 1 0 0 0 0 0 0 0 0 0 0 0 0 0 0 0 0 0 0 0 0 0 0 0 0 0 0 0 0 0 0 0 0 0
1 0 0 0 0 0 0 0 0 0 0 0 0 0 1 2 1 0 0 0 0 0 0 0 0 0 0 0 0 0 0 0 0 0 0 0 0 0 0 0 0 0 0 0 0 0 0 0 0
0 0 0 0 0 0 0 0 0 0 0 0 0 0 1 2 1 1 1 1 0 0 0 0 0 0 0 0 0 1 1 0 0 0 0 0 0 0 0 0 0 0 0 0 0 0 0 0 0
0 0 0 0 0 0 0 0 0 0 0 0 0 0 1 2 3 2 2 2 1 0 0 0 0 0 0 0 0 1 1 1 1 0 0 0 0 0 0 0 0 0 0 0 0 0 0 0 0
0 0 0 0 0 0 0 0 0 0 0 0 0 0 1 3 3 3 3 3 2 1 0 0 0 0 0 0 0 1 1 0 0 0 0 0 0 0 0 0 0 0 0 0 0 0 0 0 0
0 0 0 0 0 0 0 0 0 0 1 1 2 2 3 4 4 3 3 3 3 2 1 0 0 0 0 0 0 0 0 0 0 0 0 0 0 0 0 0 0 0 0 0 0 0 0 0 0
0 0 0 0 0 0 0 0 1 1 2 3 3 4 4 4 4 3 4 4 4 3 2 1 0 0 0 0 0 1 1 0 0 0 0 0 0 0 0 0 0 0 0 0 0 0 0 0 0
0 0 0 0 0 0 0 1 2 3 3 3 5 6 5 3 3 3 4 5 4 3 3 2 1 1 1 1 1 1 1 1 1 1 1 2 1 1 1 1 1 0 0 0 0 0 0 0 0
0 0 0 0 0 0 0 1 2 3 3 4 5 7 6 4 3 3 4 5 5 3 3 3 2 2 2 2 2 1 1 1 2 2 3 3 3 2 2 2 2 1 0 0 0 1 1 0 0
0 0 0 0 0 0 0 1 2 3 3 3 4 5 5 4 4 4 5 6 5 4 3 2 2 3 3 3 2 1 1 1 1 3 3 4 4 4 3 3 2 1 0 0 0 1 1 0 0
0 0 0 0 0 0 0 1 2 3 3 3 2 1 2 3 4 5 6 6 6 5 4 4 3 3 3 3 3 2 1 1 1 3 4 6 7 6 4 3 1 0 1 1 0 1 1 0 0
0 0 0 0 0 0 0 1 2 3 3 2 1 0 1 2 4 6 6 6 6 6 6 6 5 4 3 3 3 3 3 2 3 4 6 7 8 8 6 4 1 1 1 1 0 0 0 0 0
0 0 0 0 0 0 0 0 1 2 2 2 1 1 1 2 4 6 7 6 6 6 7 7 7 6 5 4 4 3 3 3 4 5 6 7 7 7 7 5 3 1 1 1 0 0 0 0 0
0 0 0 0 0 0 0 0 0 1 1 2 3 3 3 4 6 8 8 8 8 8 8 8 9 8 6 5 5 4 3 3 3 4 5 5 4 5 6 4 3 2 1 0 0 0 0 0 0
0 0 0 0 0 0 0 0 0 0 1 2 3 4 5 6 8 10 10 10 10 10 8 8 9 9 7 5 4 3 2 1 1 2 3 3 2 3 4 3 3 4 3 2 1 1 2 1 1
0 0 0 0 0 0 0 0 0 0 1 3 3 3 5 7 9 10 12 12 11 10 8 7 9 10 9 6 4 2 2 1 1 2 3 2 2 3 4 4 5 7 7 5 3 4 5 4 3
0 0 0 0 0 0 0 0 0 0 1 4 4 3 5 7 9 10 12 13 11 9 7 8 11 13 13 11 9 6 3 1 2 3 4 3 3 5 6 6 7 9 9 7 5 5 6 5 4
0 0 0 0 0 0 0 0 0 0 1 3 4 4 5 6 7 9 11 12 12 8 6 10 15 18 18 16 14 11 6 4 4 4 6 6 6 7 8 7 6 7 7 7 6 5 5 5 5
0 0 0 0 0 0 0 0 0 1 1 2 5 6 5 5 6 7 9 12 13 8 5 10 18 23 22 19 16 14 12 10 9 9 9 9 8 9 9 8 6 5 5 6 6 6 6 7 8
0 0 0 0 0 0 0 0 0 0 0 2 5 7 7 6 6 6 7 11 14 11 8 11 19 25 24 20 17 16 16 16 15 12 11 10 10 9 10 9 7 5 5 6 7 8 9 10 11
0 0 0 0 0 0 0 0 0 0 0 1 4 7 8 7 7 6 8 11 12 11 11 14 19 23 23 20 17 17 16 15 15 14 11 11 10 10 10 9 7 6 5 6 9 11 11 12 13
0 0 0 0 0 0 0 0 0 0 0 0 2 7 10 10 9 9 10 10 11 11 13 17 19 20 20 19 17 18 17 14 14 15 13 12 12 11 10 9 7 6 6 7 9 11 11 12 12
0 0 0 0 0 0 0 0 0 0 0 0 2 7 12 13 12 13 13 13 14 15 16 19 20 20 20 20 19 19 18 17 17 18 15 14 14 13 11 8 7 6 6 7 8 8 8 8 9
0 0 0 0 0 0 0 0 0 0 1 1 2 7 12 14 15 16 17 18 19 19 20 21 21 21 23 24 22 20 18 19 21 20 17 15 14 11 9 6 5 5 5 6 6 4 3 4 4
0 0 0 0 0 0 0 0 0 0 1 2 2 7 12 15 17 18 20 21 21 20 21 21 20 22 25 26 24 21 19 20 21 21 19 16 13 9 6 5 4 3 4 5 5 3 1 2 2

GEFSSGP_con_probscp_240.txt.gz
Probability
11 17 28 31 20 7 1 0 0 0 0 0 0 0 0 0 0 0 0 0 0 0 0 0 0 0 0 0 1 1 1 1 1 1 1 0 0 0 0 0 1 1 0 1 2 3 3 4 5
14 21 28 24 12 3 0 0 0 0 0 0 0 0 0 0 0 0 0 0 0 0 0 0 0 0 0 0 0 1 1 1 1 0 0 0 0 0 0 1 2 2 1 1 2 3 3 3 4
18 22 20 12 4 0 0 0 0 0 0 0 0 0 0 0 0 0 0 0 0 0 0 0 0 0 0 0 0 0 1 1 0 0 0 0 0 0 0 1 3 3 2 1 2 3 3 3 3
20 16 10 3 0 0 0 0 0 0 0 1 1 0 0 0 0 0 1 1 1 1 0 0 0 0 0 0 0 0 1 0 0 0 0 0 0 0 0 1 2 2 2 2 2 2 2 2 2
16 10 4 1 0 0 0 0 0 0 0 2 2 1 1 0 0 0 1 2 3 3 2 0 0 0 0 0 0 0 0 0 0 0 0 0 0 0 0 1 1 1 1 2 2 1 1 1 2
11 6 2 0 0 0 0 0 0 0 0 2 3 3 1 1 1 0 1 3 4 4 3 1 0 0 0 0 0 0 0 0 0 0 0 0 0 0 0 0 0 0 1 1 1 0 0 1 2
7 3 0 0 0 0 0 0 0 0 0 1 3 2 2 2 2 2 3 3 3 3 2 1 0 0 0 0 0 0 0 0 0 0 0 0 0 0 0 0 0 0 0 0 0 0 0 1 1
3 1 0 0 0 0 0 0 0 0 0 1 1 1 2 3 3 3 4 3 2 1 1 0 0 0 0 0 1 1 0 0 0 0 0 0 1 1 0 0 0 0 0 0 0 0 0 0 0
0 0 0 0 0 0 0 0 0 0 1 1 1 2 3 4 3 3 4 3 2 2 1 0 0 0 0 1 2 2 1 1 1 1 1 1 1 1 0 1 2 2 1 0 0 0 0 0 0
0 0 0 0 0 0 0 0 0 0 1 2 3 3 5 5 4 4 3 3 4 4 3 2 1 1 0 1 2 3 4 4 2 1 1 1 1 1 0 2 5 5 2 1 1 1 0 0 0
0 0 0 0 0 0 0 0 0 1 2 3 4 6 6 6 6 6 4 3 4 5 6 5 4 3 1 0 1 3 5 6 4 2 2 2 1 1 1 2 5 5 3 1 1 1 0 0 0
0 0 0 0 0 0 0 0 1 2 3 3 4 6 6 6 7 7 5 3 4 5 6 6 6 5 3 2 2 3 4 6 6 6 5 4 5 5 3 2 3 3 2 1 1 0 0 0 0
0 0 0 0 0 0 0 0 1 3 3 3 4 5 5 5 6 6 6 5 4 4 5 6 7 7 5 5 5 4 5 6 9 10 8 7 7 7 5 3 3 2 2 2 2 1 0 0 0
0 0 0 0 0 0 0 0 1 2 3 3 4 5 4 5 6 6 7 7 6 4 5 7 9 8 7 7 6 4 5 7 10 11 10 8 7 6 6 4 4 2 2 3 3 1 0 0 0
0 0 0 0 0 0 0 0 0 2 3 4 5 6 6 7 8 8 8 8 7 5 6 8 10 11 11 8 6 4 4 6 8 11 12 10 7 6 6 5 3 2 2 4 3 2 2 1 0
0 0 0 0 0 0 0 0 0 2 5 6 7 8 11 11 11 10 11 10 8 6 7 8 10 12 14 11 6 4 4 5 8 11 13 13 11 10 8 5 3 1 2 3 3 3 3 2 1
0 0 0 0 0 0 1 1 1 2 5 8 9 11 15 16 14 14 13 13 12 11 9 9 9 12 13 13 9 7 6 8 11 13 14 15 14 12 9 6 3 2 1 3 3 4 5 4 3
0 0 0 0 0 1 2 2 2 2 4 8 10 12 16 19 18 16 14 15 17 19 18 14 13 13 14 15 14 12 10 11 13 15 15 15 14 13 10 7 5 4 3 3 4 6 5 4 3
0 0 0 0 0 1 2 2 2 2 3 7 10 13 18 22 22 19 16 18 23 28 30 26 22 21 19 19 19 18 15 15 16 17 18 18 17 15 11 9 8 7 5 4 5 6 5 3 2
0 0 0 0 0 0 1 2 1 1 3 5 10 14 19 23 25 24 22 22 28 36 38 35 34 32 28 23 21 20 19 20 21 20 21 21 21 17 14 12 11 9 8 6 5 5 4 2 1
0 0 0 0 0 1 2 3 1 1 1 4 8 13 18 24 28 29 28 26 30 38 41 41 43 43 37 29 24 22 23 24 23 23 23 22 21 19 18 16 14 11 9 6 4 4 4 3 1
0 0 0 0 0 1 3 3 3 2 2 3 6 10 16 24 30 32 32 30 30 35 40 45 50 49 44 36 28 25 26 26 24 24 24 22 20 19 20 19 17 12 9 6 4 5 7 7 4
0 0 0 0 0 1 2 3 5 5 3 3 6 8 14 23 29 33 35 32 29 30 38 48 55 54 50 42 32 27 27 26 25 25 25 23 20 19 21 23 22 17 11 7 6 6 8 10 9
0 0 0 0 0 0 1 2 5 7 4 3 5 8 13 20 28 33 37 36 31 32 39 50 58 59 56 48 38 31 28 27 27 26 24 20 18 19 21 23 24 22 16 12 9 7 8 10 11
0 0 0 0 0 0 0 1 4 7 5 3 6 9 13 20 28 35 40 41 38 39 46 54 60 61 58 52 44 37 33 31 30 28 23 19 17 18 19 21 22 20 16 14 12 10 9 9 9
0 0 0 0 0 0 0 1 3 5 4 3 7 10 13 20 28 34 40 43 41 44 51 58 62 62 57 51 46 41 38 34 31 29 25 20 18 19 21 21 18 13 10 11 14 13 11 9 8
0 0 0 0 0 0 0 0 1 3 3 4 7 9 13 20 27 32 37 40 40 45 52 57 60 61 57 51 46 42 38 34 31 29 27 24 21 22 24 21 15 9 7 9 12 11 10 10 10
0 0 0 0 0 0 0 0 1 3 3 4 7 10 14 21 27 32 35 37 39 44 50 53 56 57 56 53 49 44 40 35 33 33 30 26 24 25 25 21 14 9 7 8 8 8 8 9 10
0 0 0 0 0 0 0 0 1 2 3 5 9 13 18 24 29 33 36 39 42 45 48 51 53 54 55 54 52 49 45 41 38 34 30 25 24 25 26 23 16 10 9 8 7 6 6 7 8
0 0 0 1 1 1 0 0 0 1 3 5 10 15 22 27 30 33 36 41 45 46 48 51 52 53 55 56 55 52 49 45 41 34 27 22 22 24 26 24 17 11 9 9 8 6 5 6 6

GEFSSGP_con_probscp_246.txt.gz
Probability
11 9 7 5 2 0 1 3 3 3 3 3 3 3 3 3 3 3 3 3 3 3 3 3 3 3 3 3 3 3 3 3 3 3 3 4 5 6 5 5 5 6 6 6 6 5 4 4 4
7 7 6 4 1 1 2 3 3 3 3 3 3 3 3 3 3 3 3 3 3 3 3 3 3 3 3 3 3 3 3 3 3 3 3 4 5 6 6 6 6 6 6 6 5 4 4 4 4
6 7 6 3 1 1 3 4 4 4 3 3 3 3 3 3 3 3 3 3 3 3 3 3 3 3 3 3 3 3 4 4 4 4 4 4 5 6 6 7 6 6 6 5 4 4 4 5 6
7 7 5 2 1 2 3 4 4 4 4 3 3 3 3 3 3 3 3 3 3 3 3 3 3 3 3 4 4 4 5 6 6 6 5 5 5 6 7 7 6 5 5 4 4 4 5 6 6
6 5 2 1 1 3 4 4 4 4 4 4 3 3 3 3 3 3 3 4 4 4 3 3 3 3 4 4 4 5 6 6 6 6 6 6 6 6 6 6 5 4 4 5 6 6 6 6 6
4 3 1 1 2 3 4 5 5 4 4 5 4 3 3 3 3 3 4 5 6 5 4 3 3 3 4 4 5 6 7 7 7 7 6 6 6 6 5 5 4 4 5 6 6 6 6 6 6
2 1 0 1 2 3 4 5 6 6 6 6 5 4 4 4 4 5 5 5 6 5 4 3 3 3 3 4 5 6 7 8 8 7 7 6 6 6 5 4 5 6 6 5 4 4 5 6 6
1 0 0 1 2 3 3 4 5 6 7 6 5 5 5 5 6 6 5 4 4 4 3 3 3 3 3 4 6 7 7 8 9 8 7 6 6 5 5 5 6 6 5 4 3 3 4 5 6
0 0 0 0 1 3 3 3 4 6 7 6 5 5 6 6 7 7 6 5 4 3 3 3 3 3 3 4 5 6 6 7 7 7 6 5 4 4 5 6 6 5 4 4 4 4 4 4 4
0 0 0 0 1 2 3 4 5 7 9 8 7 7 8 7 7 7 7 6 4 3 3 3 3 3 3 3 4 4 4 4 4 4 4 4 3 3 4 5 5 4 3 4 4 4 4 3 2
0 0 0 0 0 1 3 5 6 9 11 11 10 9 9 8 7 7 7 6 4 3 3 3 3 3 3 3 3 3 3 3 3 3 3 3 3 3 3 4 4 3 3 3 4 3 3 3 3
0 0 0 0 1 2 5 6 8 10 11 12 12 11 10 9 8 7 6 6 4 3 3 3 3 3 3 3 3 3 3 4 4 3 3 3 4 3 3 3 3 3 3 2 2 1 1 2 2
0 0 0 1 2 5 6 6 8 10 12 13 14 14 12 11 9 8 8 8 6 4 3 3 3 3 3 3 3 3 4 5 5 4 3 4 4 3 3 2 2 2 1 1 1 0 0 1 1
0 0 0 1 3 5 5 4 6 10 13 15 16 16 14 12 10 10 10 9 8 7 5 3 3 3 3 3 3 4 5 6 6 5 4 4 3 2 1 1 1 1 0 0 0 0 0 0 0
0 0 0 1 2 2 3 3 6 11 14 16 17 17 14 13 13 12 11 9 9 9 7 6 5 5 4 4 4 4 5 6 6 5 5 4 3 2 1 1 1 0 0 0 1 1 1 1 1
0 0 0 0 0 1 2 3 5 10 12 13 16 17 15 14 14 14 12 9 9 10 11 9 8 8 7 5 4 4 5 5 5 5 6 6 5 3 3 2 2 1 1 1 2 2 2 2 2
0 0 0 0 0 0 1 2 4 8 11 13 16 19 17 14 14 16 15 12 10 11 12 11 9 8 8 6 4 4 4 4 4 4 6 8 8 6 4 3 3 3 2 3 3 3 3 3 3
1 1 1 1 1 0 1 1 2 6 11 14 17 20 18 15 15 17 18 16 13 12 12 12 10 8 7 6 5 5 4 3 3 3 5 7 8 6 4 3 3 3 3 3 3 3 3 3 3
0 0 0 1 1 1 1 0 1 5 10 15 19 20 19 15 15 19 22 21 18 14 13 14 13 11 10 8 7 6 5 3 3 3 4 6 7 6 4 3 3 3 3 3 3 3 3 3 3
0 0 0 0 1 1 0 0 0 3 8 14 18 20 19 17 17 20 24 25 24 22 19 18 16 15 14 12 10 9 6 4 3 4 5 6 7 6 5 4 4 3 3 3 3 3 3 3 3
0 0 0 0 1 1 1 0 0 1 5 10 14 18 21 20 19 20 23 26 29 31 28 23 20 18 17 16 14 12 8 4 3 4 6 8 9 8 6 4 3 3 3 3 3 3 3 3 3
0 0 0 0 1 2 2 1 1 1 3 7 11 16 20 21 20 19 22 27 31 34 33 29 25 21 19 18 18 16 10 6 4 4 6 9 10 9 7 5 4 4 4 4 3 3 3 3 3
0 0 0 0 1 3 3 3 2 1 2 5 10 15 19 21 20 19 22 27 30 33 33 32 30 27 23 21 21 19 15 9 6 5 6 7 8 9 8 7 5 4 4 4 4 3 3 3 3
0 0 0 0 1 2 2 2 2 2 3 7 11 16 19 21 20 19 22 27 31 32 32 31 32 31 28 24 22 20 18 14 9 5 4 5 6 8 9 8 6 5 5 5 4 4 4 3 2
1 1 0 0 1 1 1 1 1 2 4 8 14 18 21 22 21 20 22 29 34 35 32 31 33 33 30 27 23 19 17 14 11 6 4 4 6 7 9 9 7 6 6 6 6 6 5 4 3
0 0 0 0 0 0 0 0 1 2 4 9 15 20 22 22 22 22 24 29 34 35 33 33 34 34 33 31 25 19 14 12 10 8 6 5 5 6 7 8 8 8 7 6 6 6 5 4 3
0 0 0 0 0 0 0 1 1 2 5 11 16 20 21 20 22 24 25 27 30 31 31 33 34 34 35 34 27 19 14 12 12 11 8 5 4 4 5 6 7 7 7 7 7 6 4 2 1
0 0 0 0 0 0 0 1 1 2 7 14 18 19 20 21 22 24 25 26 28 27 27 29 31 32 34 34 29 20 15 15 15 13 10 6 4 4 4 6 6 7 8 8 7 5 3 2 1
0 0 0 0 0 0 0 0 1 2 7 15 19 21 24 25 24 25 27 28 29 28 26 27 29 30 33 34 31 23 19 19 18 15 12 9 7 6 6 7 8 8 9 8 6 4 3 3 2
0 0 0 0 0 0 0 0 1 2 6 13 21 25 27 28 26 26 28 30 31 30 27 28 31 31 32 34 31 27 24 22 19 17 14 11 9 9 9 10 9 9 9 7 4 3 3 3 3

GEFSSGP_con_probscp_252.txt.gz
Probability
10 6 2 0 0 0 0 0 0 0 0 0 0 0 0 0 0 0 0 0 0 0 0 0 1 3 3 3 3 2 1 1 0 0 0 0 1 1 0 0 0 0 1 1 2 4 4 2 1
9 4 1 0 0 0 0 0 0 0 0 0 0 0 0 0 0 0 0 0 0 0 0 1 2 2 2 3 3 3 2 2 1 0 0 1 2 2 1 1 1 1 2 2 3 3 3 2 0
6 3 1 0 0 0 0 0 0 0 0 0 0 0 0 0 0 0 0 0 0 0 0 1 1 1 1 2 3 3 3 3 1 0 1 2 5 5 3 2 2 2 3 3 2 2 2 1 0
3 2 1 0 0 0 0 0 0 0 0 0 0 0 0 0 0 0 0 0 0 0 0 0 0 0 1 2 3 3 3 3 2 2 2 4 6 6 5 3 2 2 2 1 1 0 0 0 0
2 2 1 0 0 0 0 0 0 0 0 0 0 0 0 0 0 0 0 0 0 0 0 0 0 1 2 3 3 3 3 3 3 3 3 4 5 6 4 2 0 1 1 1 0 0 0 0 0
2 1 0 0 0 0 0 0 0 0 0 0 0 0 0 0 0 0 0 0 0 0 0 0 1 2 3 4 3 3 3 3 3 3 3 3 4 4 3 1 0 0 1 1 0 0 0 0 1
2 1 0 0 0 0 0 0 0 0 0 0 0 0 0 0 0 0 0 0 0 0 0 0 1 2 3 3 4 4 4 4 4 3 3 3 3 2 1 0 0 0 1 1 1 1 1 1 2
1 0 0 0 0 0 0 0 0 0 0 0 0 0 0 0 0 0 0 0 0 0 0 0 0 1 1 2 3 3 4 5 5 4 3 3 2 1 1 1 0 0 0 1 2 2 2 3 3
0 0 0 0 0 0 0 0 0 0 0 0 0 0 0 1 2 1 1 0 0 0 0 0 0 0 0 0 1 2 3 4 3 3 2 2 1 1 2 2 1 0 0 1 2 3 3 3 3
0 0 0 0 0 0 0 0 0 0 0 0 0 0 2 3 3 3 2 1 0 0 0 0 0 0 0 0 0 0 1 1 1 1 1 1 0 1 2 2 1 0 0 1 2 2 2 2 2
0 0 0 0 0 0 0 0 1 0 0 0 0 1 3 4 4 3 3 2 1 0 0 0 0 0 0 0 0 0 0 0 0 0 0 0 0 0 1 1 1 0 0 0 1 1 1 1 1
0 0 0 0 0 0 0 0 0 0 0 0 1 2 3 3 3 2 2 2 1 0 0 0 0 0 0 0 1 1 1 0 0 1 1 1 0 0 0 0 0 0 0 0 0 0 0 0 0
0 0 0 0 0 0 0 0 0 0 0 0 1 2 2 1 1 1 1 1 0 0 0 1 1 0 0 1 2 2 2 1 1 2 2 1 0 0 0 0 0 0 0 0 0 0 0 0 0
0 0 0 0 0 0 0 0 0 0 0 1 2 2 1 0 1 2 2 1 0 0 1 2 1 0 0 1 1 2 1 1 1 2 2 1 0 0 0 0 0 0 0 0 0 0 0 0 0
0 0 0 0 0 0 0 0 0 0 1 1 2 2 1 1 2 3 3 2 1 0 1 2 2 0 0 0 0 0 0 0 0 1 1 1 0 0 0 0 0 0 0 0 0 0 0 0 0
0 0 0 0 0 0 0 0 0 1 2 2 3 3 3 2 2 2 2 3 2 1 2 2 1 0 0 0 0 0 0 0 0 0 0 0 0 0 0 0 0 0 0 0 0 0 0 0 0
0 0 0 0 0 0 0 0 0 1 2 3 3 5 5 5 3 1 1 3 3 2 2 2 1 0 0 0 0 0 0 0 0 0 0 0 0 0 0 0 0 0 0 0 0 0 0 0 0
0 0 0 0 0 0 0 0 0 1 3 3 3 4 6 7 5 2 1 3 4 4 4 4 3 1 0 1 1 0 0 0 0 0 0 0 0 0 0 0 0 0 0 0 0 0 0 0 0
0 0 0 0 0 0 0 0 0 1 2 3 3 4 5 6 4 2 1 3 5 6 6 5 4 2 1 1 2 1 0 0 0 1 0 0 0 0 0 0 0 0 0 0 0 0 0 0 0
0 0 0 0 0 0 0 0 0 1 1 3 4 5 6 5 4 3 3 4 6 7 6 5 3 1 1 1 2 1 0 1 1 1 0 0 0 0 0 0 0 0 0 0 0 0 0 0 0
0 0 0 0 0 0 0 0 0 0 1 2 4 6 6 5 4 3 5 7 8 7 6 5 2 1 1 2 2 2 2 2 1 0 0 0 0 0 0 0 0 0 0 0 0 0 0 0 0
0 0 0 0 0 0 0 0 0 0 1 2 4 5 6 5 4 4 7 10 10 8 7 5 3 2 2 2 3 3 2 2 1 0 0 0 0 0 0 0 0 0 0 0 0 0 0 0 1
0 0 0 0 0 0 0 0 0 0 0 1 3 5 6 6 5 5 9 12 13 11 8 6 5 3 2 2 2 2 2 1 0 0 0 0 0 0 0 0 0 0 0 0 0 0 0 0 1
0 0 0 0 0 0 0 0 0 0 0 1 2 4 7 8 7 7 10 14 14 11 9 7 6 5 3 1 1 2 2 1 0 0 0 0 0 1 1 1 0 0 0 0 0 1 1 1 1
0 0 0 0 0 0 0 0 0 0 0 0 1 3 7 8 8 8 11 14 14 11 9 7 6 5 3 2 2 3 2 2 1 0 0 0 0 1 2 1 0 0 0 1 1 2 2 2 2
0 0 0 0 0 0 0 0 0 0 1 1 1 2 6 8 8 8 11 14 14 12 9 7 5 5 4 4 4 4 3 3 2 1 1 0 0 0 1 1 0 0 0 1 2 3 3 3 3
0 0 0 0 0 0 0 0 0 1 2 3 2 2 5 7 9 10 13 14 14 11 8 6 4 5 5 5 5 4 4 5 4 2 1 1 0 0 0 0 0 0 1 2 3 3 2 2 1
0 0 0 0 0 0 0 0 1 3 4 3 2 2 3 5 9 12 14 14 13 10 7 5 5 6 6 6 5 4 5 6 6 4 2 2 1 1 0 0 0 1 2 2 2 1 1 1 0
0 0 0 0 0 0 0 0 1 3 4 2 1 1 2 5 9 12 14 13 12 9 6 5 5 7 7 6 5 4 4 6 7 6 5 4 3 2 2 1 1 3 3 2 1 0 0 0 1
0 0 0 0 0 0 0 0 1 3 4 2 1 1 2 5 11 13 13 12 11 8 5 4 5 7 7 7 5 4 4 6 8 7 6 5 4 3 3 3 3 4 3 1 0 0 0 1 1

GEFSSGP_con_probscp_258.txt.gz
Probability
9 9 10 7 3 1 0 0 0 0 0 0 0 0 0 0 0 0 0 0 0 0 0 0 0 1 1 0 0 0 0 0 0 0 0 0 1 2 2 3 4 4 4 4 3 4 4 2 1
8 8 8 6 2 0 0 0 0 0 0 0 0 0 0 0 0 0 0 0 0 0 0 0 1 2 2 1 0 0 0 0 0 0 0 0 0 1 1 2 4 5 4 3 3 3 3 2 1
7 7 6 3 0 0 0 0 0 0 0 0 0 0 0 0 0 0 0 0 0 0 0 0 1 3 3 2 1 1 1 0 1 1 0 0 0 0 1 2 4 4 3 2 2 2 1 1 0
8 6 3 1 0 0 0 0 0 0 0 0 0 0 0 0 0 0 0 0 0 0 0 1 3 4 4 3 2 2 2 1 1 2 1 1 1 1 1 3 3 3 2 1 1 1 0 0 0
6 4 1 0 0 0 0 0 0 0 0 0 0 0 0 0 0 0 0 0 0 0 1 3 5 6 5 4 3 3 2 1 2 3 3 2 2 2 2 2 2 1 1 0 0 0 0 0 0
3 2 0 0 0 0 0 0 0 0 0 0 0 0 0 0 0 0 0 0 0 0 1 3 5 6 5 4 3 3 3 2 3 3 3 3 1 1 1 1 1 0 0 0 0 0 0 1 1
2 1 0 0 0 0 0 0 0 0 0 0 0 0 0 0 0 0 0 0 0 0 1 2 4 4 5 4 3 3 4 4 4 4 3 2 1 0 0 0 0 0 0 0 0 0 0 1 2
2 1 0 0 0 0 0 0 0 0 0 0 0 0 0 1 0 0 0 0 0 0 0 1 3 3 4 3 3 4 5 6 6 4 2 1 1 0 0 0 0 0 0 0 0 0 0 2 3
2 1 0 0 0 0 0 0 0 0 0 0 0 0 0 1 1 1 1 0 0 0 0 1 2 3 3 3 4 5 6 6 6 5 3 2 2 1 0 0 0 0 0 0 0 0 1 2 3
2 1 0 0 0 0 0 0 0 0 0 0 0 1 1 1 1 2 2 1 1 0 0 1 3 4 4 3 3 4 4 5 5 6 5 4 3 2 0 0 0 0 0 1 1 1 1 3 3
1 0 0 0 0 0 0 0 0 0 0 0 1 2 2 1 2 3 3 3 2 1 0 1 3 5 5 4 4 3 3 4 5 6 6 5 3 1 0 0 0 1 1 1 1 2 2 2 3
0 0 0 0 0 0 0 0 0 0 0 0 1 3 3 2 2 2 3 3 2 1 0 0 2 5 5 5 5 4 4 4 4 6 6 5 3 1 0 0 0 1 1 1 1 2 1 1 2
0 0 0 0 0 0 0 0 0 0 1 1 2 3 4 3 1 1 1 2 1 0 0 0 2 4 5 6 6 5 4 4 3 4 5 4 2 0 0 0 0 1 1 0 1 1 0 0 1
0 0 0 0 0 0 0 0 0 1 2 3 4 4 4 4 2 1 2 2 1 1 1 1 2 3 4 6 6 5 4 3 2 2 2 1 0 0 0 0 0 0 0 0 0 0 0 0 0
0 0 0 0 0 0 0 0 1 2 4 5 5 3 2 3 3 3 4 4 3 2 2 2 2 3 5 6 5 4 3 2 1 1 1 0 0 0 0 0 0 0 0 0 0 0 0 0 0
0 0 0 0 0 0 0 0 1 2 4 4 3 1 1 2 4 5 6 6 4 4 4 4 4 4 6 8 7 4 2 1 2 2 2 1 0 0 0 0 0 0 0 0 0 0 0 1 1
0 0 0 0 0 0 0 0 1 2 3 3 1 1 1 1 3 5 6 6 5 5 6 6 6 7 9 10 9 7 4 3 3 3 2 1 0 0 0 0 0 0 0 0 1 1 1 1 0
0 0 0 0 0 0 0 0 0 1 2 2 1 0 0 0 1 4 5 6 7 7 8 8 8 10 11 10 10 8 5 4 3 2 1 0 0 0 0 0 1 1 0 1 1 2 2 1 1
0 0 0 0 0 0 0 0 0 0 1 2 2 1 0 0 1 3 4 5 8 11 11 10 10 11 12 11 10 9 6 4 3 1 0 0 0 0 0 0 0 1 1 1 2 3 2 1 2
0 0 0 0 0 0 0 0 0 0 0 1 1 1 0 0 2 5 6 6 9 12 12 11 11 11 11 12 11 8 6 4 2 1 0 0 1 1 2 1 0 0 0 1 2 3 3 3 3
0 0 0 0 1 0 0 0 1 1 1 1 1 1 1 1 3 7 9 9 10 11 11 11 12 11 10 11 10 9 7 5 2 0 0 1 2 3 3 2 1 0 0 1 2 4 5 6 6
0 0 0 0 0 0 0 0 1 2 2 2 2 2 2 3 5 8 10 10 10 10 10 11 12 11 10 11 11 10 8 6 2 0 0 1 3 3 3 3 1 1 1 1 2 4 7 9 10
0 0 0 0 0 0 0 0 1 3 3 3 4 3 3 4 6 8 9 9 9 11 11 11 12 12 11 12 13 12 9 6 2 1 1 3 4 3 3 3 3 2 2 2 4 6 8 10 10
0 0 0 0 0 0 0 0 1 3 3 4 5 5 4 4 6 8 9 9 11 13 13 12 13 12 12 12 12 11 8 6 4 3 4 5 5 3 3 4 4 3 4 5 6 7 8 8 8
0 0 1 0 0 0 0 1 2 3 4 5 6 5 5 6 7 9 10 13 14 16 16 15 14 13 12 11 10 9 7 6 6 6 6 6 4 2 3 4 4 5 6 7 8 7 7 7 8
0 0 0 0 0 0 1 2 3 3 4 5 5 5 7 8 10 12 14 15 15 15 16 16 15 13 12 12 11 10 9 7 8 9 9 7 4 2 3 5 6 6 6 7 8 7 6 7 8
0 0 0 0 0 0 1 3 4 4 5 6 6 7 9 11 13 15 17 17 16 14 14 14 14 14 14 14 13 13 12 11 11 12 13 9 6 4 4 5 6 6 6 7 8 8 7 8 8
0 0 0 0 0 0 1 3 4 5 6 7 7 8 10 13 16 18 18 19 17 14 13 12 14 16 17 16 16 16 17 17 14 14 15 12 8 6 5 5 5 5 6 7 7 8 8 9 10
0 0 0 0 0 0 1 3 5 6 6 7 7 8 9 12 16 17 17 17 16 13 12 14 16 18 18 18 19 20 21 21 18 15 15 13 11 10 8 7 6 7 8 7 6 6 8 10 11
0 0 0 0 0 0 1 3 5 6 7 7 7 7 7 11 15 15 14 16 14 12 12 15 18 19 18 18 20 22 23 22 21 18 16 15 15 13 12 10 9 10 11 9 6 6 8 10 11

GEFSSGP_con_probscp_264.txt.gz
Probability
11 14 20 23 16 4 0 0 0 0 0 0 0 0 1 0 0 0 0 0 0 0 0 0 0 0 0 0 0 0 0 0 0 0 0 0 1 1 1 3 4 4 4 4 4 2 1 1 0
13 20 25 20 9 2 0 0 0 0 0 0 0 0 1 0 0 0 0 0 0 0 0 0 0 0 0 0 0 0 0 0 0 0 0 0 1 1 3 4 4 5 5 4 3 2 1 0 0
21 27 26 14 4 0 0 0 0 0 0 0 0 0 0 0 0 0 0 0 0 0 0 0 0 0 0 0 0 0 0 0 0 0 1 1 1 1 3 5 5 5 4 4 3 1 0 0 0
28 27 17 6 1 0 0 0 0 0 0 0 0 0 0 0 0 0 0 0 0 0 0 0 0 0 0 0 0 0 1 1 0 1 2 1 0 0 2 3 3 2 2 3 2 1 0 0 0
27 18 8 2 0 0 0 0 0 0 0 0 0 0 0 0 0 0 0 0 0 1 1 1 1 1 1 0 0 0 1 2 1 1 2 2 1 1 1 1 1 1 2 2 1 0 0 0 0
18 11 3 0 0 0 0 0 0 0 0 1 1 0 0 0 0 0 0 0 1 2 3 3 2 3 4 3 1 1 2 3 2 1 2 2 2 2 2 2 2 3 3 2 1 0 0 0 1
11 7 2 0 0 0 0 0 0 0 0 1 1 0 0 1 2 2 1 1 1 2 3 3 3 5 7 6 4 3 3 3 2 1 1 2 2 3 3 3 3 2 2 1 0 0 0 0 1
6 4 1 0 0 0 0 0 0 0 0 1 1 0 0 1 3 3 2 1 1 1 1 1 1 3 5 6 7 7 6 6 5 4 4 5 5 4 4 2 1 1 1 0 0 0 0 0 1
3 1 0 0 0 0 0 0 0 0 0 0 0 1 1 1 3 3 2 1 0 1 1 1 1 1 3 5 8 9 10 10 10 8 8 8 6 4 3 2 1 0 0 0 0 0 0 0 0
1 0 0 0 0 0 0 0 0 0 0 0 1 2 2 1 2 2 2 1 1 2 2 3 3 3 3 4 6 7 9 10 10 9 8 7 4 2 1 1 2 1 1 0 1 1 0 0 0
0 0 0 0 0 0 0 0 0 0 1 1 2 3 3 1 1 1 2 2 1 2 3 4 5 6 5 4 4 4 6 7 8 7 6 4 3 2 1 1 2 2 1 1 2 2 1 0 0
0 0 0 0 0 0 0 0 0 0 1 2 2 3 3 2 1 1 3 2 1 1 3 6 8 8 7 6 5 4 4 5 6 6 6 5 4 3 1 1 1 1 1 0 1 1 1 0 0
0 0 0 0 0 0 0 0 0 0 1 1 1 2 3 3 3 3 4 3 1 0 3 7 11 11 10 8 6 4 5 6 6 7 8 6 3 2 2 1 1 0 0 0 0 0 1 1 1
0 0 0 0 0 0 0 0 0 1 1 1 1 2 2 3 4 5 5 4 3 2 5 9 12 13 12 10 7 5 4 6 7 9 10 6 2 1 2 2 1 0 0 0 0 0 1 2 2
0 0 0 0 0 0 0 0 0 1 2 2 2 3 3 3 4 6 7 7 6 7 10 12 12 13 15 13 10 7 5 5 7 8 8 5 2 0 1 2 1 0 0 0 0 0 2 3 3
0 0 0 0 0 0 0 1 1 1 1 1 1 3 4 4 5 7 9 8 8 12 17 16 13 13 15 15 13 10 8 6 5 6 5 3 1 0 0 1 1 1 1 1 0 0 1 2 2
0 0 0 0 0 0 0 1 1 1 0 1 2 3 4 5 6 8 10 9 9 14 21 21 17 15 15 15 15 13 10 8 6 5 4 3 1 0 0 1 2 2 2 1 0 0 0 1 2
0 0 0 0 0 0 0 0 1 1 1 2 4 6 7 7 8 10 11 9 10 15 21 22 19 17 17 17 17 15 12 10 8 7 7 6 4 3 2 1 1 1 1 1 0 0 0 1 2
0 0 0 0 0 0 0 1 2 2 3 5 6 10 12 11 11 13 13 10 10 15 19 21 19 18 20 21 22 19 15 11 9 8 10 10 9 7 4 2 1 0 0 0 0 0 0 1 2
0 0 0 0 0 0 0 2 3 3 4 7 9 12 15 16 16 18 19 15 13 16 18 20 20 19 20 23 23 20 16 11 8 8 12 13 12 9 5 2 1 1 1 2 2 3 3 2 2
0 0 0 0 0 0 0 2 5 4 4 7 9 11 14 17 19 20 21 19 18 19 20 21 22 21 21 21 21 19 16 11 8 11 16 17 13 9 6 3 3 3 4 5 6 7 7 6 4
0 0 0 0 0 0 0 2 5 6 6 7 9 10 12 17 21 21 22 23 24 23 24 26 27 26 23 22 21 19 16 11 11 16 21 21 15 10 7 6 5 5 5 6 8 9 9 7 6
0 0 0 1 1 1 0 1 4 7 8 9 10 11 12 16 20 22 25 29 28 24 26 33 35 31 27 25 23 21 17 14 14 19 24 24 18 12 10 9 8 7 6 6 7 9 9 8 7
0 0 1 2 2 1 1 1 4 7 9 10 11 11 12 14 19 24 30 34 29 24 26 35 42 40 33 28 25 24 23 21 19 21 23 22 20 17 15 12 9 8 7 6 7 8 8 9 9
0 0 1 1 1 1 1 3 6 8 9 10 11 12 12 13 19 25 32 35 30 26 28 38 48 47 39 31 28 28 27 25 24 24 24 22 20 19 18 14 10 8 7 6 7 7 9 9 10
0 0 0 0 0 0 1 4 6 8 9 8 10 13 13 14 19 25 31 33 31 29 32 42 52 52 43 35 33 31 28 25 25 26 25 23 21 20 18 15 11 8 7 6 7 8 9 10 10
0 0 0 0 0 0 1 4 7 7 8 7 9 12 14 16 19 23 27 29 28 30 36 45 54 55 47 40 36 35 31 27 25 24 24 24 23 22 20 16 12 10 8 8 9 9 10 11 11
0 0 0 0 0 0 2 5 7 8 8 9 9 11 16 20 21 21 22 24 25 29 36 42 50 54 48 41 36 34 34 31 26 23 23 26 26 25 24 19 15 14 14 13 11 11 11 13 14
0 0 0 0 1 0 2 5 8 9 11 10 9 11 18 23 24 22 20 22 25 29 33 38 44 47 45 39 32 30 33 33 30 28 27 28 30 31 30 25 22 22 22 19 15 15 15 15 16
0 0 0 0 1 0 2 5 9 11 12 11 9 11 18 24 26 25 22 24 27 30 33 37 41 42 40 37 30 27 31 33 32 32 31 30 32 34 34 31 27 27 26 22 19 19 19 18 16

GEFSSGP_con_probscp_270.txt.gz
Probability
11 9 6 4 1 0 0 0 0 0 0 0 0 0 0 0 0 0 0 0 0 0 0 0 1 0 0 1 2 2 2 1 1 0 0 0 0 0 0 0 0 1 2 3 2 1 2 4 4
9 8 6 4 1 0 0 0 0 0 0 0 0 0 0 0 0 0 0 0 0 0 0 1 1 1 0 0 1 1 1 1 1 1 0 0 0 0 0 0 0 1 3 3 2 2 3 5 6
9 8 6 3 1 0 0 0 0 0 0 0 0 0 0 0 0 0 0 0 0 0 0 1 2 1 0 0 0 0 0 1 1 1 1 1 0 1 2 1 1 2 4 3 3 3 3 5 5
8 7 4 1 0 0 0 0 0 0 0 0 0 0 0 0 0 0 0 0 0 0 0 1 2 2 1 0 0 0 0 0 0 1 1 1 1 1 2 2 1 2 3 3 3 2 2 2 2
5 4 1 0 0 0 0 1 1 0 0 0 0 0 0 0 0 0 0 0 0 0 0 1 3 3 2 1 1 0 0 0 0 0 1 1 0 1 1 1 1 1 2 2 2 1 0 0 0
4 2 0 0 0 0 1 2 1 0 0 0 0 0 0 0 0 0 1 0 0 0 0 1 3 4 3 3 2 1 1 1 0 0 0 0 0 0 0 0 0 0 1 1 1 0 0 0 0
4 2 0 0 0 0 1 2 1 0 0 0 0 0 0 0 0 0 0 0 0 0 0 1 2 3 3 4 4 3 3 3 1 0 1 1 1 0 0 0 0 0 0 0 0 0 0 0 0
4 2 0 0 0 0 0 1 2 1 0 0 0 0 1 1 1 0 0 0 0 0 0 0 1 2 2 3 4 5 6 5 3 2 2 2 1 0 0 0 0 0 0 0 0 0 0 0 0
4 1 0 0 0 0 0 1 2 2 1 0 0 0 1 2 1 0 0 0 0 0 0 0 0 0 0 1 3 5 6 5 4 3 3 2 1 0 0 0 0 0 0 0 0 0 0 0 0
2 1 0 0 0 0 0 0 1 3 2 0 0 0 0 1 1 0 0 0 0 0 0 0 0 0 0 0 1 2 4 4 3 2 1 1 0 0 0 0 0 0 0 0 0 0 0 0 0
1 0 0 0 1 0 0 0 1 2 1 0 0 0 0 0 0 0 0 1 1 0 0 0 0 0 0 0 0 1 2 3 2 1 0 0 0 0 0 0 0 0 0 0 0 0 0 0 0
0 0 0 0 0 0 0 0 0 1 0 0 0 0 0 0 0 0 1 2 2 1 0 0 0 0 0 0 1 2 3 3 2 1 0 0 0 0 0 0 0 0 0 0 0 0 0 0 0
0 0 0 0 0 1 1 0 0 1 1 0 0 0 0 0 1 1 3 4 5 3 1 0 0 0 0 1 2 3 3 2 1 0 0 0 0 0 0 0 0 0 0 0 0 0 0 0 0
0 0 0 0 1 2 1 0 1 2 2 1 0 0 1 1 2 3 5 6 6 4 2 2 2 2 1 1 2 3 2 1 0 0 0 0 0 0 0 0 0 0 0 0 0 0 0 0 0
0 0 0 0 1 2 2 0 1 3 3 1 0 1 2 2 2 4 6 7 7 5 4 5 6 5 3 2 2 1 1 1 0 0 0 0 0 0 0 0 0 0 0 0 0 0 0 0 0
0 0 0 0 1 2 2 1 1 2 2 1 0 2 3 3 3 4 5 7 7 6 6 7 9 9 8 5 2 1 1 1 1 0 0 0 0 0 0 0 0 0 0 0 0 0 0 0 0
0 0 0 0 0 1 1 1 0 1 1 1 0 2 5 5 3 3 4 7 8 7 7 9 11 12 11 8 4 2 2 2 1 0 0 0 0 0 0 0 0 0 0 0 0 0 0 0 0
0 0 0 0 0 1 1 0 0 0 0 0 0 1 4 4 3 2 4 6 8 9 10 10 10 12 12 9 5 3 3 2 1 0 0 0 0 0 0 0 0 0 0 0 0 0 0 0 0
0 0 0 0 1 2 2 1 0 0 0 0 0 0 2 3 3 2 4 7 9 10 11 10 9 9 10 8 5 3 3 3 2 1 0 0 0 0 0 0 0 0 0 0 0 0 0 0 0
0 0 0 0 1 3 2 1 0 0 1 1 1 1 2 3 4 5 7 10 12 12 11 10 9 8 7 6 4 3 3 2 2 1 0 0 0 0 0 0 0 0 0 0 0 0 0 0 0
0 0 0 0 1 2 2 1 1 1 1 2 2 2 2 4 6 8 11 14 16 16 13 10 9 7 5 4 3 3 3 3 2 1 0 1 1 1 0 0 0 1 1 0 0 0 0 0 0
0 0 0 0 1 1 2 2 2 2 2 3 3 2 3 5 8 11 14 17 20 19 14 11 10 8 5 4 4 4 3 3 2 1 1 2 2 1 0 0 1 2 2 1 0 0 0 1 1
0 0 0 0 0 0 1 2 3 2 3 5 5 3 4 6 11 15 16 18 19 18 13 11 12 11 8 7 6 5 4 3 1 1 2 3 2 0 0 0 1 2 3 2 1 1 1 2 2
0 0 0 0 0 0 0 1 2 3 4 5 6 5 6 8 13 17 18 17 17 17 15 14 14 13 10 9 8 6 4 3 1 2 3 4 2 1 1 1 1 2 3 3 3 2 2 3 3
0 0 0 0 0 0 0 0 2 4 5 5 6 7 8 9 12 17 19 18 17 18 19 18 17 15 13 11 10 7 5 3 2 3 4 5 4 3 2 2 2 2 2 2 3 3 3 3 3
1 0 0 0 0 0 0 1 2 3 4 6 7 8 9 9 11 15 18 18 18 19 20 20 19 18 16 14 10 7 5 3 2 2 4 5 5 4 3 3 3 3 2 1 1 3 3 3 3
2 1 0 0 0 0 0 1 1 1 3 6 7 9 10 10 12 14 16 18 19 19 21 22 22 20 19 16 11 7 5 3 2 3 4 5 5 5 4 4 3 3 2 1 1 2 3 3 3
2 1 0 0 0 0 0 1 0 1 3 5 7 10 13 13 13 14 15 17 18 19 22 23 22 20 19 16 12 10 7 5 4 5 7 6 7 8 7 6 4 3 3 1 1 2 3 3 3
2 1 0 0 0 0 1 1 1 1 3 5 8 11 12 13 14 14 16 16 16 18 20 21 21 21 20 18 15 14 12 10 8 9 11 11 11 11 10 9 6 5 4 2 1 1 1 2 2
1 0 0 0 0 0 1 2 1 1 3 6 9 10 10 12 13 14 15 16 15 16 18 20 22 22 22 21 18 17 16 14 12 12 12 14 15 13 11 10 8 6 5 3 2 2 1 1 1